Caldwell, TX

4:37 AM CST on January 24, 2017 (GMT -0600)
Caldwell

Weather History for KRWV - November, 2012

Change the Weather History Date:

Monday, November 26, 2012

  Actual Average (KCLL) Record (KCLL)
Temperature  
Mean Temperature 68 °F -  
Max Temperature 80 °F 65 °F 86 °F (1965)
Min Temperature 55 °F 45 °F 27 °F (1993)
Cooling Degree Days 2    
Growing Degree Days 18 (Base 50)    
Moisture  
Dew Point 59 °F    
Average Humidity 75    
Maximum Humidity 100    
Minimum Humidity 45    
Precipitation  
Precipitation 0.08 in - - ()
Sea Level Pressure  
Sea Level Pressure 30.01 in    
Wind  
Wind Speed 8 mph (SSW)    
Max Wind Speed 18 mph    
Max Gust Speed 34 mph    
Visibility 10 miles    
Events Rain , Thunderstorm    
Averages and records for this station are not official NWS values.
T = Trace of Precipitation, MM = Missing Value Source: NWS Daily Summary

Daily Weather History Graph

Daily Weather History Graph

Search for Another Location

Airport or City:

Trip Planner

Search our weather history database for the weather conditions in past years. The results will help you decide how hot, cold, wet, or windy it might be!

Date:

Astronomy

Nov. 26, 2012 Rise Set
Actual Time 7:02 AM CST 5:25 PM CST
Civil Twilight 6:36 AM CST 5:51 PM CST
Nautical Twilight 6:06 AM CST 6:21 PM CST
Astronomical Twilight 5:38 AM CST 6:50 PM CST
Moon 4:15 PM CST (11/26) 5:18 AM CST (11/26)
Length of Visible Light 11h 15m
Length of Day
10h 23m
Waxing Gibbous, 97% of the Moon is Illuminated
Nov 26
Waxing Gibbous
Nov 28
Full
Dec 6
Last Quarter
Dec 13
New
Dec 19
First Quarter

Hourly Weather History & Observations

Time (CST) Temp. Heat Index Dew Point Humidity Pressure Visibility Wind Dir Wind Speed Gust Speed Precip Events Conditions
12:15 AM 62.6 °F - 60.8 °F 94% 29.99 in 10.0 mi SSE 4.6 mph - N/A   Scattered Clouds
12:35 AM 62.6 °F - 60.8 °F 94% 29.99 in 10.0 mi SSE 5.8 mph - N/A   Mostly Cloudy
12:55 AM 62.6 °F - 60.8 °F 94% 29.98 in 10.0 mi SSE 6.9 mph - N/A   Mostly Cloudy
1:15 AM 62.6 °F - 60.8 °F 94% 29.97 in 10.0 mi SE 5.8 mph - N/A   Partly Cloudy
1:35 AM 60.8 °F - 60.8 °F 100% 29.97 in 10.0 mi SE 3.5 mph - N/A   Clear
1:55 AM 60.8 °F - 59.0 °F 94% 29.96 in 10.0 mi SSE 5.8 mph - N/A   Partly Cloudy
2:15 AM 60.8 °F - 60.8 °F 100% 29.96 in 10.0 mi SE 3.5 mph - N/A   Mostly Cloudy
2:35 AM 60.8 °F - 60.8 °F 100% 29.96 in 10.0 mi SSE 4.6 mph - N/A   Mostly Cloudy
2:55 AM 60.8 °F - 60.8 °F 100% 29.96 in 9.0 mi South 3.5 mph - N/A   Overcast
3:15 AM 62.6 °F - 62.6 °F 100% 29.96 in 8.0 mi South 4.6 mph - N/A   Overcast
3:35 AM 62.6 °F - 62.6 °F 100% 29.95 in 9.0 mi SSE 6.9 mph - N/A   Overcast
3:55 AM 62.6 °F - 62.6 °F 100% 29.95 in 9.0 mi South 5.8 mph - N/A   Overcast
4:15 AM 64.4 °F - 64.4 °F 100% 29.95 in 10.0 mi South 5.8 mph - N/A   Overcast
4:35 AM 64.4 °F - 64.4 °F 100% 29.96 in 9.0 mi South 6.9 mph - N/A   Overcast
4:55 AM 64.4 °F - 64.4 °F 100% 29.96 in 10.0 mi South 8.1 mph - N/A   Overcast
5:15 AM 64.4 °F - 64.4 °F 100% 29.96 in 8.0 mi South 9.2 mph - N/A   Overcast
5:35 AM 64.4 °F - 64.4 °F 100% 29.97 in 10.0 mi South 8.1 mph - N/A   Overcast
5:55 AM 64.4 °F - 64.4 °F 100% 29.98 in 10.0 mi SSW 6.9 mph - N/A   Overcast
6:15 AM 66.2 °F - 64.4 °F 94% 29.98 in 10.0 mi SSW 11.5 mph - N/A   Overcast
6:35 AM 66.2 °F - 62.6 °F 88% 29.99 in 10.0 mi SSW 9.2 mph - N/A   Overcast
6:55 AM 64.4 °F - 62.6 °F 94% 30.00 in 10.0 mi SSW 10.4 mph - N/A   Mostly Cloudy
7:15 AM 64.4 °F - 62.6 °F 94% 30.00 in 10.0 mi South 11.5 mph - N/A   Mostly Cloudy
7:35 AM 64.4 °F - 62.6 °F 94% 30.00 in 10.0 mi South 9.2 mph - N/A   Overcast
7:55 AM 64.4 °F - 62.6 °F 94% 30.00 in 10.0 mi South 8.1 mph - N/A   Overcast
8:15 AM 64.4 °F - 62.6 °F 94% 30.00 in 10.0 mi South 11.5 mph - N/A   Overcast
8:35 AM 66.2 °F - 62.6 °F 88% 30.01 in 10.0 mi SSW 10.4 mph 16.1 mph N/A   Overcast
8:55 AM 66.2 °F - 62.6 °F 88% 30.02 in 10.0 mi South 13.8 mph - N/A   Mostly Cloudy
9:15 AM 69.8 °F - 62.6 °F 78% 30.02 in 10.0 mi South 15.0 mph - N/A   Partly Cloudy
9:35 AM 69.8 °F - 62.6 °F 78% 30.03 in 10.0 mi SSW 11.5 mph - N/A   Clear
9:55 AM 71.6 °F - 62.6 °F 73% 30.03 in 10.0 mi SSW 11.5 mph - N/A   Clear
10:15 AM 71.6 °F - 62.6 °F 73% 30.02 in 10.0 mi SSW 13.8 mph - N/A   Clear
10:35 AM 73.4 °F - 62.6 °F 69% 30.03 in 10.0 mi SSW 10.4 mph - N/A   Clear
10:55 AM 75.2 °F - 62.6 °F 65% 30.02 in 10.0 mi SSW 10.4 mph - N/A   Clear
11:15 AM 75.2 °F - 62.6 °F 65% 30.02 in 10.0 mi SSW 10.4 mph - N/A   Clear
11:35 AM 77.0 °F - 60.8 °F 57% 30.01 in 10.0 mi SSW 11.5 mph 18.4 mph N/A   Clear
11:55 AM 78.8 °F - 60.8 °F 54% 30.00 in 10.0 mi SSW 12.7 mph - N/A   Clear
12:15 PM 78.8 °F - 60.8 °F 54% 29.99 in 10.0 mi SSW 12.7 mph - N/A   Clear
12:35 PM 78.8 °F - 60.8 °F 54% 29.98 in 10.0 mi South 11.5 mph - N/A   Clear
12:55 PM 78.8 °F - 60.8 °F 54% 29.97 in 10.0 mi SSW 12.7 mph 16.1 mph N/A   Clear
1:15 PM 80.6 °F 81.5 °F 60.8 °F 51% 29.97 in 10.0 mi South 12.7 mph 18.4 mph N/A   Clear
1:35 PM 80.6 °F 81.5 °F 60.8 °F 51% 29.96 in 10.0 mi SSW 8.1 mph - N/A Thunderstorm Clear
1:55 PM 80.6 °F 81.5 °F 60.8 °F 51% 29.95 in 10.0 mi SSW 13.8 mph - N/A   Clear
2:15 PM 80.6 °F 81.5 °F 60.8 °F 51% 29.95 in 10.0 mi South 10.4 mph 18.4 mph N/A   Clear
2:35 PM 80.6 °F 81.5 °F 60.8 °F 51% 29.95 in 10.0 mi SSW 11.5 mph 18.4 mph N/A   Clear
2:55 PM 80.6 °F 81.1 °F 59.0 °F 48% 29.95 in 10.0 mi SSW 10.4 mph - N/A   Clear
3:15 PM 80.6 °F 81.5 °F 60.8 °F 51% 29.95 in 10.0 mi South 10.4 mph 16.1 mph N/A   Clear
3:35 PM 80.6 °F 81.5 °F 60.8 °F 51% 29.95 in 10.0 mi South 13.8 mph 19.6 mph N/A   Clear
3:55 PM 80.6 °F 80.8 °F 57.2 °F 45% 29.96 in 10.0 mi SSW 6.9 mph - N/A   Clear
4:15 PM 80.6 °F 80.8 °F 57.2 °F 45% 29.96 in 10.0 mi SSW 6.9 mph - N/A   Clear
4:35 PM 78.8 °F - 57.2 °F 47% 29.96 in 10.0 mi South 6.9 mph - N/A   Clear
4:55 PM 77.0 °F - 57.2 °F 50% 29.97 in 10.0 mi South 6.9 mph - N/A   Clear
5:15 PM 77.0 °F - 59.0 °F 54% 29.97 in 10.0 mi South 4.6 mph - N/A   Clear
5:35 PM 75.2 °F - 57.2 °F 53% 29.98 in 10.0 mi Calm Calm - N/A   Clear
5:55 PM 75.2 °F - 57.2 °F 53% 29.99 in 10.0 mi Calm Calm - N/A   Clear
6:15 PM 73.4 °F - 59.0 °F 61% 29.99 in 10.0 mi Calm Calm - N/A   Clear
6:35 PM 73.4 °F - 59.0 °F 61% 30.00 in 10.0 mi Calm Calm - N/A   Clear
6:55 PM 71.6 °F - 59.0 °F 64% 30.01 in 10.0 mi Calm Calm - N/A   Clear
7:15 PM 71.6 °F - 59.0 °F 64% 30.02 in 10.0 mi Calm Calm - N/A   Clear
7:35 PM 73.4 °F - 59.0 °F 61% 30.03 in 10.0 mi South 10.4 mph - N/A   Scattered Clouds
7:55 PM 69.8 °F - 57.2 °F 64% 30.11 in 9.0 mi WNW 18.4 mph 34.5 mph 0.04 in Rain , Thunderstorm Heavy Rain
8:15 PM 60.8 °F - 53.6 °F 77% 30.11 in 9.0 mi NW 10.4 mph 16.1 mph 0.02 in Rain Rain
8:35 PM 60.8 °F - 57.2 °F 88% 30.11 in 9.0 mi North 10.4 mph - 0.04 in Rain , Thunderstorm Light Thunderstorms and Rain
8:55 PM 60.8 °F - 55.4 °F 82% 30.13 in 10.0 mi NNW 8.1 mph - 0.04 in   Drizzle
9:15 PM 60.8 °F - 53.6 °F 77% 30.11 in 10.0 mi North 12.7 mph - N/A   Mostly Cloudy
9:35 PM 59.0 °F - 51.8 °F 77% 30.10 in 10.0 mi NNW 17.3 mph 24.2 mph N/A   Partly Cloudy
9:55 PM 59.0 °F - 50.0 °F 72% 30.12 in 10.0 mi NNW 17.3 mph 21.9 mph N/A   Clear
10:15 PM 59.0 °F - 48.2 °F 67% 30.14 in 10.0 mi NW 12.7 mph 19.6 mph N/A   Clear
10:35 PM 57.2 °F - 48.2 °F 72% 30.15 in 10.0 mi NW 15.0 mph 21.9 mph N/A   Clear
10:55 PM 57.2 °F - 48.2 °F 72% 30.16 in 10.0 mi NW 17.3 mph - N/A   Clear
11:15 PM 57.2 °F - 46.4 °F 67% 30.18 in 10.0 mi NW 15.0 mph 19.6 mph N/A   Clear
11:35 PM 55.4 °F - 46.4 °F 72% 30.19 in 10.0 mi NW 15.0 mph 20.7 mph N/A   Clear
11:55 PM 55.4 °F - 44.6 °F 67% 30.21 in 10.0 mi NW 10.4 mph - N/A   Clear